Regional Weather Roundup
Issued by NWS

Current Version | Previous Version | Text Only | Print | Product List | Glossary On
Versions: 1 2 3 4 5 6 7 8 9 10 11 12 13 14 15 16 17 18 19 20 21 22 23 24 25 26 27 28 29 30 31 32 33 34 35 36 37 38 39 40 41 42 43 44 45 46 47 48 49 50
000
ASUS42 KFFC 190010
RWRGA
WEATHER ROUNDUP FOR GEORGIA
NATIONAL WEATHER SERVICE PEACHTREE CITY GA
800 PM EDT SUN APR 18 2021

NOTE: "FAIR" INDICATES FEW OR NO CLOUDS BELOW 12,000 FEET WITH NO
SIGNIFICANT WEATHER AND/OR OBSTRUCTIONS TO VISIBILITY.

* = USE WITH CAUTION. THE STATIONS MARKED WITH AN ASTERISK MAY NOT
REPORT WEATHER SUCH AS PRECIPITATION, FOG, OR THUNDER AND ARE NOT
QUALITY CONTROLLED BY NWS.

THE REMARK "TC" DENOTES TEMPERATURE READING IN DEGREES CELSIUS.

GAZ001>058-190100-
NORTH GEORGIA

CITY           SKY/WX    TMP DP  RH WIND       PRES   REMARKS
ATLANTA        MOCLDY    67  41  38 W10       29.85R
6HR MIN TEMP:  67; 6HR MAX TEMP:  73;

ATHENS         PTCLDY    69  38  32 SW3       29.83R
6HR MIN TEMP:  68; 6HR MAX TEMP:  76;

CHAMBLEE       PTCLDY    65  40  39 W6        29.85R
6HR MIN TEMP:  65; 6HR MAX TEMP:  72;

PEACHTREE CITY PTCLDY    67  47  48 W3        29.85R
6HR MIN TEMP:  67; 6HR MAX TEMP:  74;

ROME           CLEAR     64  43  46 SW5       29.86R
6HR MIN TEMP:  64; 6HR MAX TEMP:  72;

WEST ATLANTA   PTCLDY    67  38  34 W7        29.85S
6HR MIN TEMP:  67; 6HR MAX TEMP:  72;

GAINESVILLE    CLEAR     64  36  35 W9        29.86R
6HR MIN TEMP:  64; 6HR MAX TEMP:  71;

CARTERSVILLE   CLEAR     64  41  42 W10       29.87S


CITY           SKY/WX    TMP DP  RH WIND       PRES   REMARKS
DALTON*        CLOUDY    68  34  28 CALM      29.88R
LAWRENCEVILLE* PTCLDY    66  39  37 W6        29.85R
MARIETTA       MOCLDY    66  39  38 NW7       29.85S
KENNESAW*      CLEAR     65  41  41 NW6       29.87S
CANTON*        CLEAR     63  37  39 NW3       29.87S
BLAIRSVILLE*   CLEAR     60  35  38 NW5       29.87R
$$

GAZ059>098-102>109-190100-
CENTRAL GEORGIA

CITY           SKY/WX    TMP DP  RH WIND       PRES   REMARKS
AUGUSTA-BUSH   PTCLDY    71  45  39 W5        29.81R
6HR MIN TEMP:  71; 6HR MAX TEMP:  81;

AUGUSTA-DANIEL PTCLDY    73  42  32 W3        29.83R
6HR MIN TEMP:  73; 6HR MAX TEMP:  79;

COLUMBUS       PTCLDY    70  43  37 W7        29.85R
6HR MIN TEMP:  70; 6HR MAX TEMP:  76;

MACON          PTCLDY    71  48  43 W6        29.83R
6HR MIN TEMP:  71; 6HR MAX TEMP:  79;

ROBINS AFB     MOCLDY    73  46  38 W7        29.82R


CITY           SKY/WX    TMP DP  RH WIND       PRES   REMARKS
LAGRANGE*      PTCLDY    67  46  46 CALM      29.86R
SYLVANIA*      MOCLDY    74  50  42 CALM      29.82S
MILLEDGEVILLE* PTCLDY    70  48  46 CALM      29.84R
$$

GAZ099>101-110>166-190100-
SOUTH GEORGIA

CITY           SKY/WX    TMP DP  RH WIND       PRES   REMARKS
SAVANNAH       MOCLDY    73  58  59 SW8       29.82S
6HR MIN TEMP:  73; 6HR MAX TEMP:  80;

VALDOSTA       CLOUDY    66  62  87 S3        29.87R
6HR MIN TEMP:  66; 6HR MAX TEMP:  73; 6HR PCP:  0.03;

ALMA           MOCLDY    69  60  73 S5        29.84R
6HR MIN TEMP:  69; 6HR MAX TEMP:  75;

ST SIMONS      CLOUDY    69  68  96 SW7       29.85S
6HR MIN TEMP:  69; 6HR MAX TEMP:  76; 6HR PCP:  0.02;

FT STEWART     MOCLDY    71  59  65 S3        29.81S
ALBANY         MOCLDY    73  53  49 W5        29.86R
HUNTER AFB     MOCLDY    73  58  60 CALM      29.80S
MOODY AFB      CLOUDY    66  62  87 S6        29.85S
BRUNSWICK      CLOUDY    68  64  87 SW9       29.85S


CITY           SKY/WX    TMP DP  RH WIND       PRES   REMARKS
BAINBRIDGE*    MOCLDY    68  60  74 S6        29.86S
MOULTRIE*      MOCLDY    68  61  77 CALM      29.87S
VIDALIA*       MOCLDY    73  48  40 SW3       29.83R
WAYCROSS*      CLOUDY    70  68  95 SW10      29.86R
DOUGLAS*       MOCLDY    69  59  68 SW7       29.87R
$$



USA.gov is the U.S. government's official web portal to all federal, state and local government web resources and services.